www.pogodaiklimat.ru
ПОГОДА в Сикестоне
Время
и дата
03:35 06.02
03:55 06.02
04:15 06.02
04:35 06.02
04:55 06.02
05:15 06.02
05:35 06.02
05:55 06.02
06:15 06.02
06:35 06.02
06:55 06.02
07:15 06.02
07:35 06.02
07:55 06.02
08:15 06.02
08:35 06.02
08:55 06.02
09:15 06.02
09:35 06.02
09:55 06.02
10:15 06.02
10:35 06.02
10:55 06.02
11:15 06.02
11:35 06.02
11:55 06.02
12:15 06.02
12:35 06.02
12:55 06.02
13:15 06.02
13:35 06.02
13:55 06.02
14:15 06.02
14:35 06.02
14:55 06.02
15:15 06.02
15:35 06.02
15:55 06.02
16:15 06.02
16:35 06.02
16:55 06.02
17:15 06.02
17:35 06.02
17:55 06.02
18:15 06.02
18:35 06.02
18:55 06.02
19:15 06.02
Ветер
(напр.,м/с)
Видим. Явления Облачность Т
(С)
Тd
(С)
f
(%)
Тe
(С)
Тes
(С)
Комфортность P
(гПа)
Po
(гПа)
Тmin
(С)
Tmax
(С)
R
(мм)
R24
(мм)
S
(см)
штиль 0 <100 м переохлажденный туман ?/? 0.0 0.0 100 -1 -1 1010.1
штиль 0 400 м переохлажденный туман ?/? -1.0 -1.0 100 -2 -2 1010.4
штиль 0 800 м переохлажденный туман 8/8 30 м -1.0 -1.0 100 -2 -2 1010.4
штиль 0 400 м переохлажденный туман 10/10 30 м 0.0 0.0 100 -1 -1 1011.1
штиль 0 400 м переохлажденный туман 10/10 30 м -1.0 -1.0 100 -2 -2 1010.8
штиль 0 400 м переохлажденный туман 8/8 30 м -1.0 -1.0 100 -2 -2 1011.1
штиль 0 800 м переохлажденный туман ?/? -1.0 -1.0 100 -2 -2 1011.1
штиль 0 2 км дымка ?/? -1.0 -1.0 100 -2 -2 1011.1
штиль 0 400 м переохлажденный туман ?/? -1.0 -1.0 100 -2 -2 1011.1
штиль 0 800 м туман ?/? 0.0 0.0 100 -1 -1 1011.1
штиль 0 <100 м переохлажденный туман ?/? 0.0 0.0 100 -1 -1 1011.4
штиль 0 1 км дымка ?/? 0.0 0.0 100 -1 -1 1011.8
штиль 0 <100 м туман ?/? 0.0 0.0 100 -1 -1 1011.8
штиль 0 2 км дымка ?/? +1.0 +1.0 100 0 0 1011.8
штиль 0 2 км дымка ?/? +2.0 +2.0 100 +1 +1 1011.8
штиль 0 4 км дымка ясно +3.0 +3.0 100 +2 +3 1011.8
штиль 0 11 км ясно +6.0 +6.0 100 +5 +6 1011.4
штиль 0 16 км ясно +6.0 +6.0 100 +5 +9 1011.8
штиль 0 16 км ясно +7.0 +7.0 100 +6 +10 1011.8
штиль 0 16 км ясно +8.0 +8.0 100 +7 +11 1011.4
ЮВ 4 16 км ясно +10.0 +8.0 87 +7 +11 1011.4
ЮВ 4 16 км ясно +11.0 +8.0 82 +9 +13 1011.4
штиль 0 16 км ясно +13.0 +8.0 72 +13 +20 1011.1
ЮВ 4 16 км ясно +13.0 +8.0 72 +11 +16 1010.8
ЮВ 5 16 км ясно +15.0 +7.0 59 +14 +18 1010.4
ЮВ 6 16 км ясно +15.0 +7.0 59 +13 +16 1010.1
ЮВ 6
{7}
16 км ясно +15.0 +7.0 59 +13 +17 1009.8
ЮВ 4 16 км ясно +16.0 +7.0 55 +15 +21 1009.1
ЮВ 6
{8}
16 км ясно +16.0 +6.0 51 +15 +18 1008.4
ЮВ 5
{9}
16 км ясно +17.0 +5.0 45 +16 +20 1008.1
ЮВ 5
{8}
16 км ясно +17.0 +5.0 45 +16 +20 1007.8
Ю 5
{8}
16 км ясно +17.0 +4.0 42 +16 +20 1007.4
Ю 4
{8}
16 км ясно +17.0 +3.0 39 +17 +20 1007.1
Ю 4
{8}
16 км ясно +17.0 +3.0 39 +17 +20 1006.7
ЮВ 6
{9}
16 км ясно +17.0 +4.0 42 +16 +18 1006.4
Ю 6
{9}
16 км ясно +18.0 +3.0 37 +17 +19 1006.4
Ю 4
{8}
16 км ясно +18.0 +3.0 37 +18 +20 1006.1
Ю 5 16 км ясно +17.0 +4.0 42 +16 +18 1006.1
Ю 5
{7}
16 км ясно +17.0 +5.0 45 +16 +17 1005.7
Ю 4 16 км ясно +17.0 +4.0 42 +17 +17 1005.7
Ю 4 16 км ясно +16.0 +3.0 42 +15 +16 1005.7
Ю 3 16 км ясно +16.0 +4.0 45 +16 +16 1005.4
Ю 3 16 км ясно +15.0 +4.0 48 +14 +14 1005.4
ЮВ 2 16 км ясно +15.0 +4.0 48 +15 +15 1005.4
ЮЗ 3 16 км ясно +12.0 +4.0 58 +11 +11 1005.1
Ю 2 16 км ясно +12.0 +5.0 62 +11 +11 1004.7
Ю 2 16 км ясно +12.0 +5.0 62 +11 +11 1004.4
штиль 0 16 км ясно +11.0 +5.0 66 +11 +11 1004.7
Местоположение метеостанции Sikeston Memorial Municipal Airport: широта 36.8989 долгота -89.5618 высота над уровнем моря 95 м.
В архиве по умолчанию представлена погода в Сикестоне за последние 1-2 суток. Обновление информации о фактической погоде в базе происходит ежечасно! Архивные данные за месяц целиком и за предыдущие месяцы Вы можете получить, выбрав интересующий диапазон дат из раскрывающегося списка и нажав кнопку "Ввод!".
Внимание! Архив погоды МЕТАР в базе сайта по станциям, не включенным в климатический монитор, хранится не более 60 дней. Нет смысла пытаться выбрать более раннюю дату.
*Определитесь, кто Вы:
Внимание! Время в таблицах - местное (без учета летнего времени). Для получения всемирного времени необходимо вычесть поправку, которая равна -6 ч.
Смотрите также архив погоды в соседних городах и на ближайших метеорологических станциях:
Партнеры нашего сайта:      
Пояснения к столбцам:
  • Ветер - указаны скорость ветра в м/с - средняя за 10 мин, порывы в срок и между сроками (в фигурных скобках) и направление, откуда дует ветер: С - северный,
  • СВ - северо-восточный, В - восточный, ЮВ - юго-восточный, Ю - южный, ЮЗ - юго-западный, З - западный, СЗ - северо-западный.
  • Видимость - горизонтальная дальность видимости в метрах или километрах. При видимости от 1 до 10 км при отсутствии осадков обычно наблюдается дымка, при ухудшении видимости до 1 км и менее - туман. В сухую погоду видимость может ухудшаться дымом, пылью или мглою.
  • Явления - указаны атмосферные явления, наблюдавшиеся в срок или в последний час перед сроком; фигурными скобками обозначены явления, наблюдавшиеся между сроками (за 1-3 часа до срока); квадратными скобками обозначены град или гололедные отложения с указанием их диаметра в мм.
  • Облачность - указаны через наклонную черту общая и нижняя облачность в баллах и высота нижней границы облаков в метрах; квадратными скобками обозначены формы облаков: Ci - перистые, Cs - перисто-слоистые, Cc - перисто-кучевые, Ac - высококучевые, As - высокослоистые, Sc - слоисто-кучевые, Ns - слоисто-дождевые, Cu - кучевые, Cb - кучево-дождевые. Подробнее классификацию облаков см. в Атласе облаков (PDF).
  • T - Температура воздуха - температура, измеренная на высоте 2 м над землей.
  • Td - Температура точки росы - температура, при понижении до которой содержащийся в воздухе водяной пар достигнет насыщения.
  • f - Относительная влажность воздуха - влажноcть воздуха, измеренная на высоте 2 м над землей.
  • Te - Эффективная температура - температура, которую ощущает одетый по сезону человек в тени. Характеристика душности погоды. При расчете учитывается влияние влажности воздуха и скорости ветра на теплоощущения человека.
  • Tes - Эффективная температура на солнце - температура, которую ощущает человек, с поправкой на солнечный нагрев. Характеристика знойности погоды. Зависит от высоты солнца над горизонтом, облачности и скорости ветра. Ночью, в пасмурную погоду, а также при ветре 12 м/с и более поправка равна нулю.
  • P - Атмосферное давление - приведенное к уровню моря атмосферное давление.
  • Po - Атмосферное давление - измеренное на уровне метеостанции атмосферное давление.
  • Tmin - Минимальная температура - минимум температуры воздуха на высоте 2 м над землей.
  • Tmax - Максимальная температура - максимум температуры воздуха на высоте 2 м над землей.
  • R - Количество осадков - Количество выпавших осадков за период времени, мм. При наведении курсора мыши на число - период времени, за который выпало указанное количество осадков.
  • R24 - Количество осадков - Количество выпавших осадков за 24 часа, мм.
  • S - Снежный покров - Высота снежного покрова, см. При наведении курсора мыши на число - состояние снежного покрова и степень покрытия местности в баллах.